Location: Carthage
(33.8834°N, 106.6595°W)
Time: 12:15:27
(UTC+00:00)

Cosmos 1980 Rocket - Visible Passes

Search period start: 18 May 2026 00:00
Search period end: 28 May 2026 00:00
Orbit: 826 x 850 km, 71.0° (Epoch: 18 May)

Date Brightness Start Highest point End Pass type
(mag) Time Alt. Az. Time Alt. Az. Time Alt. Az.
18 May 3.8 03:39:29 10° NW 03:44:19 29° WSW 03:49:06 10° SSW visible
19 May 3.8 03:23:18 10° NW 03:28:15 32° WSW 03:33:11 10° SSW visible
20 May 3.7 03:07:07 10° NW 03:12:12 34° WSW 03:17:13 10° SSW visible
21 May 3.6 02:50:58 10° NW 02:56:08 37° WSW 03:01:16 10° S visible
22 May 3.5 02:34:48 10° NW 02:40:04 41° WSW 02:45:18 10° S visible
